Location: Chiroubles
(46.1812°N, 4.6660°E)
Time: 03:35:08
(UTC+00:00)

Tiros 1 - Pass Details

Date: 27 November 2020
Orbit: 630 x 663 km, 48.4° (Epoch: 16 January)

Event Time Altitude Azimuth Distance (km) Brightness Sun altitude
Rises 17:41:39 0° 266° (W) 2,989 12.2 -17.3°
Reaches altitude 10° 17:44:02 10° 269° (W) 2,074 11.0 -17.7°
Maximum altitude 17:48:48 70° 352° (N) 701 7.2 -18.5°
Enters shadow 17:50:30 39° 65° (ENE) 984 7.6 -18.8°
